weather.gov     
National Weather Service

Regional Weather Roundup
NWS Homepage
This page is being discontinued on March 12, 2014.
The same data is available at this site. Please update your bookmarks.
Thank you, and we apologize for the inconvenience.
Please send an email to SR-SRH.Webmaster@noaa.gov with any concerns.


Current Version
Previous Version:    01  02  03  04  05  06  07  08  09  10  11  12  13  14  15  16  17  18  19  20  21  22  23  24  25  26  27  28  29  30  
   31  32  33  34  35  36  37  38  39  40  41  42  43  44  45  46  47  48  49  50  51  52  53  54  55  56  57  58  59  60  
[Printable]
015
ASUS43 KFSD 301610
RWRFSD

WEATHER ROUNDUP FOR SE SOUTH DAKOTA/SW MINNESOTA/NW IOWA
NATIONAL WEATHER SERVICE SIOUX FALLS SD
1100 AM CDT TUE SEP 30 2014

NOTE: "FAIR" INDICATES FEW OR NO CLOUDS BELOW 12,000 FEET WITH NO
SIGNIFICANT WEATHER AND OR OBSTRUCTIONS TO VISIBILITY.


SDZ038>040-050-052>070-301700-
SOUTHEAST SOUTH DAKOTA

CITY           SKY/WX    TMP DP  RH WIND       PRES   REMARKS
CHAMBERLAIN    MOSUNNY   67  53  59 S21G31    29.61F
HURON          LGT RAIN  58  56  93 SE13G28   29.68F
MADISON        LGT RAIN  54  54 100 SE16G24   29.81F
MITCHELL       CLOUDY    62  59  90 SE22G30   29.71F
SIOUX FALLS    RAIN      58  54  86 SE15      29.82F FOG
WINNER         FAIR      68  49  50 S21G29    29.60F
YANKTON        PTSUNNY   63  59  88 E14G20    29.76F
$$

MNZ071-072-080-081-089-090-097-098-301700-
SOUTHWEST MINNESOTA

CITY           SKY/WX    TMP DP  RH WIND       PRES   REMARKS
FAIRMONT       CLOUDY    52  45  76 SE12      29.96F
JACKSON        CLOUDY    50  48  93 SE16      29.94F
LUVERNE        CLOUDY    57  52  82 SE12G17   29.87S
MARSHALL       CLOUDY    48  43  81 SE18G24   29.89F
MONTEVIDEO     CLOUDY    46  43  87 SE17      29.94F
PIPESTONE      CLOUDY    54  52  94 SE14G22   29.86R
REDWOOD FALLS  CLOUDY    47  43  86 E13       29.95F
TRACY          CLOUDY    49  48  95 SE16      29.91F FOG
WINDOM         CLOUDY    52  48  87 E14       29.93F
WORTHINGTON    CLOUDY    54  52  94 SE17      29.91F
$$

IAZ001>003-012>014-020>022-031-032-NEZ013-014-SDZ071-301700-
NORTHWEST IOWA

CITY           SKY/WX    TMP DP  RH WIND       PRES   REMARKS
CHEROKEE       CLOUDY    58  57  95 SE14      29.90S
DENISON        PTSUNNY   66  61  82 SE10G16   29.88F
ESTHERVILLE    CLOUDY    51  50  96 SE15      29.95S
LE MARS        CLOUDY    61  57  88 VRB6G16   29.86F
ORANGE CITY    CLOUDY    63  55  77 SE9G17    29.87S
SHELDON        PTSUNNY   57  55  94 SE13G22   29.87F
SIOUX CITY     LGT RAIN  63  59  87 SE9       29.86S
SPENCER        CLOUDY    56  52  86 SE16G25   29.92F
STORM LAKE     FOG       55  55 100 SE14      29.92F VSB 1/2
$$

ABBREVIATIONS USED IN REMARKS
   TC - TEMPERATURE IN CELSIUS
  WCI - WIND CHILL INDEX
   HX - HEAT INDEX
  VSB - VISIBILITY





U.S. Dept. of Commerce
NOAA National Weather Service
1325 East West Highway
Silver Spring, MD 20910
E-mail: w-nws.webmaster@noaa.gov
Page last modified: May 16, 2007
NATIONAL WEATHER SERVICE: for Safety, for Work, for Fun - FOR LIFE